BREEZE-M R/B, 40346

Orbit data source: Space-Track

BREEZE-M R/B, 40346 is space debris originally from a launch on Mon, 15 Dec 2014 UTC launched from the Tyuratam Missile And Space Complex (TTMTR). Debris objects in space refer to the collection of defunct objects orbiting the Earth. Examples of debris include non-operational satellites, rocket bodies, and fragments generated from explosions, collisions, or faulty payload assembly.

Not visible in the next 10 days
Identifier
40346, 2014-082B
Orbit
Active
Country
Flag of CISCIS
Related business
Manufacturer
Khrunichev
Mission
Spacecraft
Bus & Motor
BRIZ, Unknown motor
Mass
~1,600 kg wet, 1,600 kg dry
Launch date (UTC)
2014-12-15 (11 years ago)
Launch vehicle
Unknown
Launch site
Tyuratam Missile And Space Complex (TTMTR)
Object type
Payload
Rocket body
Debris
Shape & HBR
Cyl, 2.0 m
Radar Cross Section
14.451 m², Medium (>0.1 m² and < 1m²)

Expand to show TLE details & history
Last TLE update: 23 hours ago

TLE from 23 hours ago
0 BREEZE-M R/B
1 40346U 14082B   25260.30073689 -.00000153  00000-0  00000-0 0  9993
2 40346   8.0994  54.9444 0658985 180.4134 179.6840  1.11335548 43521
Epoch: 2025-09-17T07:13Z
TLE epoch observation values (Epoch: 2025-09-17T07:13:03.667Z)
Latitude
Longitude
-49.69212°
Altitude
35,528.237 km
Speed
2.981 km/s
True Right ascension
03h 40m 12s
True Declination
0° 00' 00"
Sunlit
Object was in daylight at epoch
Visualization orbit readout
Latitude
Unknown
Longitude
Unknown
Altitude
Unknown
Speed
Unknown
Apparent Right ascension
Unknown
Apparent Declination
Unknown
Sunlit
N/A
Visualization observer readout
Local Sidereal Time
22:37:25
Azimuth
Unknown
Elevation
Unknown
Doppler factor
Unknown
Orbital elements
Apogee altitude
35,537.313 km
Perigee altitude
30,354.521 km
Semi-major axis
39,324.054 km
Eccentricity
0.0659
Inclination
8.0994°
RAAN
54.9444°
Arg. of periapsis
180.4134°
True anomaly
179.72247°
Mean anomaly
179.684°
Eccentric anomaly
179.70354°
Mean motion
0.27833 °/min
Orbital period
1,293.44 mins
BSTAR
0
Loading maneuver chart data...
Computing Atmospheric mass density...
Loading historical data...
Loading historical data...
Loading historical data...
Loading historical data...
Loading historical data...
Loading historical data...
Loading historical data...
Other satellites on launch #82 in the year 2014 (2014-12-15 UTC)

Documentation

Showing up to 5 results
|